STARLINK-2343 (47884 NORAD) Tracking and Keplerian Element Data

This shows tracking and keplerian element data for the satellite.

Feedback or suggestion? Click here.




ElementValue
Catalog47884
NameSTARLINK-2343
Epoch Orbit195
Epoch Day173.91668981
Epoch Year2021
RAAN86.5339
Inclination53.0457
Eccentricity0.000141
Argument of Perigee75.91
Mean Anonmoly320.9829
Mean Motion15.0636394
Decay Rate0.00049032
L11 47884U 21021AA 21173.91668981 .00049032 00000-0 32910-2 0 9994
L22 47884 53.0457 86.5339 0001410 75.9100 320.9829 15.06363940 1954

Live tracking and technical data element details for STARLINK-2343 (NORAD 47884). STARLINK-2343 can be tracked NOW for your location showing map with azimuth and elevation plus other details from your city location.

Track the satellite on the map from your city or location and see movement details for azimuth, elevation, latitude, longitude, range, height, and movement on the map or in text.







IsCatalogInMostPopularTable: catalog: 47884, numindb: 45
Update: records affected: 1



GetName: 47884 STARLINK-2343

Hit Count: updated at: Thu, 24 Jun 2021 02:51:54 GMT